• Processing (Info)

  • MPEC 2014-U18 : 2014 TG64

    The following Minor Planet Electronic Circular may be linked-to from your own Web pages, but must not otherwise be redistributed electronically.

    A form allowing access to any MPEC is at the bottom of this page.


    Read MPEC 2014-U17 Read MPEC 2014-U19


    M.P.E.C. 2014-U18                                Issued 2014 Oct. 18, 14:47 UT
    
         The Minor Planet Electronic Circulars contain information on unusual
             minor planets and routine data on comets.  They are published
       on behalf of Commission 20 of the International Astronomical Union by the
              Minor Planet Center, Smithsonian Astrophysical Observatory,
                              Cambridge, MA 02138, U.S.A.
    
                 Prepared using the Tamkin Foundation Computer Network
    
                                  MPC@CFA.HARVARD.EDU
                URL https://www.minorplanetcenter.net/    ISSN 1523-6714
    
                                       2014 TG64
    
    Observations:
         K14T64G* C2014 10 14.29802 01 27 18.07 -09 37 19.2          19.1 VqEU018703
         K14T64G  C2014 10 14.30592 01 27 17.66 -09 37 19.3          19.2 VqEU018703
         K14T64G  C2014 10 14.31382 01 27 17.46 -09 37 17.1          19.2 VqEU018703
         K14T64G  C2014 10 14.32173 01 27 17.11 -09 37 16.9          19.3 VqEU018703
         K14T64G  C2014 10 15.24693 01 26 40.84 -09 34 49.2          19.5 RoEU018926
         K14T64G  C2014 10 15.26347 01 26 40.17 -09 34 46.1          19.4 RoEU018926
         K14T64G KC2014 10 15.27127 01 26 39.83 -09 34 44.4                oEU018291
         K14T64G KC2014 10 15.28011 01 26 39.51 -09 34 43.5                oEU018291
         K14T64G  C2014 10 15.28294 01 26 39.35 -09 34 43.0          19.5 RoEU018926
         K14T64G KC2014 10 15.28894 01 26 39.10 -09 34 42.0                oEU018291
         K14T64G `C2014 10 15.49578 01 26 31.08 -09 34 04.6          19.5 RqEU018D90
         K14T64G `C2014 10 15.50499 01 26 30.76 -09 34 03.3          19.3 RqEU018D90
         K14T64G `C2014 10 15.51421 01 26 30.34 -09 34 02.0          19.4 RqEU018D90
         K14T64G  C2014 10 16.28947 01 25 59.87 -09 31 55.1          20.6 VqEU018G96
         K14T64G  C2014 10 16.29830 01 25 59.47 -09 31 53.0          20.7 VqEU018G96
         K14T64G  C2014 10 16.30714 01 25 59.19 -09 31 52.0          19.0 VqEU018G96
         K14T64G  C2014 10 16.31597 01 25 58.72 -09 31 51.1          18.9 VqEU018G96
         K14T64G 1C2014 10 16.46162 01 25 53.20 -09 31 21.6                vEU018Q62
         K14T64G 1C2014 10 16.46329 01 25 53.15 -09 31 21.4                vEU018Q62
         K14T64G 1C2014 10 16.46496 01 25 53.08 -09 31 21.4          19.5 wvEU018Q62
         K14T64G KC2014 10 17.02470 01 25 31.06 -09 29 48.8          18.5 RcEU018J57
         K14T64G KC2014 10 17.02867 01 25 30.85 -09 29 47.0          21.2 RcEU018J57
         K14T64G KC2014 10 17.03506 01 25 30.62 -09 29 46.4          20.5 RcEU018J57
         K14T64G  C2014 10 18.29200 01 24 41.66 -09 26 00.6          19.2 VqEU018G96
         K14T64G  C2014 10 18.29838 01 24 41.40 -09 25 58.8          19.0 VqEU018G96
         K14T64G  C2014 10 18.30477 01 24 41.15 -09 25 57.9          19.0 VqEU018G96
         K14T64G  C2014 10 18.31117 01 24 40.91 -09 25 56.7          19.2 VqEU018G96
         K14T64G  C2014 10 18.33145 01 24 40.07 -09 25 53.0          19.8 RoEU018926
         K14T64G  C2014 10 18.34286 01 24 39.65 -09 25 50.3          19.9 RoEU018926
         K14T64G  C2014 10 18.35439 01 24 39.16 -09 25 48.1          19.8 RoEU018926
    
    Observer details:
    291 LPL/Spacewatch II.  Observer A. F. Tubbiolo.  1.8-m f/2.7 reflector + CCD.
    703 Catalina Sky Survey.  Observer J. A. Johnson.  Measurers E. J. Christensen,
        A. R. Gibbs, A. D. Grauer, R. E. Hill, J. A. Johnson, R. A. Kowalski,
        S. M. Larson, F. C. Shelly.  0.68-m Schmidt + CCD.
    926 Tenagra II Observatory.  Observers M. Schwartz, P. R. Holvorcem.  0.81-m
        f/7 Ritchey-Chretien + CCD.
    D90 RAS Observatory, Moorook.  Observer K. Hills.  0.41-m f/9 Ritchey-Chretien
        + CCD.
    G96 Mt. Lemmon Survey.  Observer A. D. Grauer.  Measurers E. J. Christensen,
        A. R. Gibbs, A. D. Grauer, R. E. Hill, J. A. Johnson, R. A. Kowalski,
        S. M. Larson, F. C. Shelly.  1.5-m reflector + CCD.
    J57 Centro Astronomico Alto Turia, Valencia.  Observers A. Carreno, P. Brines.
        Measurers V. Mas, G. Fornas.  0.40-m f/10 Schmidt-Cassegrain + CCD.
    Q62 iTelescope Observatory, Siding Spring.  Observer H. Sato.  0.51-m f/6.8
        astrograph + CCD + f/4.5 focal reducer.
    
    Orbital elements:
    2014 TG64
    Epoch 2014 Dec. 9.0 TT = JDT 2457000.5                  MPC
    M   3.27711              (2000.0)            P               Q
    n   0.01648522     Peri.  296.32440     +0.91398872     +0.27699210
    a  15.2899525      Node    49.18806     -0.04691382     +0.79795868
    e   0.7833174      Incl.   23.06178     -0.40301825     +0.53529181
    P  59.79           H   14.4           G   0.15           U   6
    Residuals in seconds of arc
    141014 703  0.1-  0.7+    141015 D90  0.4-  0.7-    141017 J57  0.2+  0.7-
    141014 703  1.4-  0.6-    141015 D90  0.3+  0.9-    141017 J57  0.5-  0.4+
    141014 703  0.4+  0.4+    141015 D90  0.4-  1.1-    141017 J57  0.1-  0.1-
    141014 703  0.1-  0.7-    141016 G96  0.0   0.2-    141018 G96  0.3-  0.8-
    141015 926  0.2+  0.8-    141016 G96  0.6-  0.4+    141018 G96  0.3-  0.2-
    141015 926  0.1+  0.4-    141016 G96  0.5+  0.1-    141018 G96  0.2-  0.4-
    141015 291  0.2-  0.1+    141016 G96  1.1-  0.8-    141018 G96  0.0   0.4-
    141015 291  0.3+  0.4-    141016 Q62  0.6-  0.2+    141018 926  0.4-  0.5-
    141015 926  0.3-  0.4-    141016 Q62  0.4-  0.1+    141018 926  0.2+  0.1+
    141015 291  0.5-  0.4-    141016 Q62  0.4-  0.2-    141018 926  0.3-  0.1+
    
    Ephemeris:
    2014 TG64                a,e,i = 15.29, 0.78, 23                 q = 3.3131
    Date    TT    R. A. (2000) Decl.     Delta      r     Elong.  Phase     V
    2014 09 18    01 42 54.7 -10 11 45   2.5548  3.4528   148.6     8.7    19.7
    ...
    2014 10 03    01 34 36.1 -09 59 45   2.5335  3.4896   159.7     5.7    19.6
    ...
    2014 10 11    01 29 27.8 -09 45 16   2.5467  3.5108   162.3     5.0    19.6
    ...
    2014 10 17    01 25 32.1 -09 29 50   2.5682  3.5274   161.4     5.2    19.6
    2014 10 18    01 24 53.1 -09 26 51   2.5728  3.5302   161.1     5.3    19.6
    2014 10 19    01 24 14.2 -09 23 45   2.5777  3.5331   160.7     5.4    19.6
    ...
    2014 10 25    01 20 27.2 -09 02 38   2.6127  3.5504   157.2     6.2    19.7
    ...
    2014 11 02    01 15 50.4 -08 27 41   2.6746  3.5744   150.9     7.8    19.9
    ...
    2014 11 17    01 09 17.2 -07 02 43   2.8343  3.6221   137.1    10.7    20.1
    
    A. U. Tomatic                (C) Copyright 2014 MPC           M.P.E.C. 2014-U18
    

    Read MPEC 2014-U17 Read MPEC 2014-U19


    MPEC number:

    Enter an MPEC number in one of the following forms:

    • 1997-B01 (the full form)
    • J97B01 (the packed version of the full form)
    • B01 (the abbreviated form)